Location: Nasgenstadt
(48.2786°N, 9.7553°E)
Time: 16:01:42
(UTC+02:00)

ISS - Pass Details

Date: 19 May 2021
Orbit: 419 x 422 km, 51.6° (Epoch: 25 June)

Event Time Altitude Azimuth Distance (km) Brightness Sun altitude
Rises 21:56:46 0° 251° (WSW) 2,364 0.5 -8.4°
Reaches altitude 10° 21:58:52 10° 252° (WSW) 1,502 -0.5 -8.6°
Maximum altitude 22:02:14 79° 339° (NNW) 434 -3.6 -9.0°
Drops below altitude 10° 22:05:38 10° 67° (ENE) 1,509 -1.2 -9.4°
Enters shadow 22:09:46 -7° 70° (ENE) 3,213 0.5 -9.9°
